Charleston, SC

10:44 AM EST on February 24, 2017 (GMT -0500)
Charleston Air Force Base-International

Weather History for KCHS - June, 2014

Change the Weather History Date:

Wednesday, June 4, 2014

  Actual Average Record
Temperature  
Mean Temperature 81 °F 77 °F  
Max Temperature 92 °F 87 °F 98 °F (1943)
Min Temperature 69 °F 67 °F 56 °F (1953)
Degree Days  
Heating Degree Days 0 0  
Month to date heating degree days 0 0  
Since 1 June heating degree days 0 0  
Since 1 July heating degree days 1875 1975  
Cooling Degree Days 16 12  
Month to date cooling degree days 44 47  
Year to date cooling degree days 554 409  
Since 1 June cooling degree days 44 47  
Growing Degree Days 30 (Base 50)    
Moisture  
Dew Point 66 °F    
Average Humidity 64    
Maximum Humidity 84    
Minimum Humidity 44    
Precipitation  
Precipitation 0.00 in 0.16 in 2.95 in (1962)
Month to date precipitation 0.00 0.59  
Year to date precipitation 17.25 16.90  
Sea Level Pressure  
Sea Level Pressure 29.94 in    
Wind  
Wind Speed 9 mph (SW)    
Max Wind Speed 18 mph    
Max Gust Speed 23 mph    
Visibility 10 miles    
Events      
T = Trace of Precipitation, MM = Missing Value Source: NWS Daily Summary

Daily Weather History Graph

Daily Weather History Graph

Search for Another Location

Airport or City:

Trip Planner

Search our weather history database for the weather conditions in past years. The results will help you decide how hot, cold, wet, or windy it might be!

Date:

Astronomy

Jun. 04, 2014 Rise Set
Actual Time 6:11 AM EDT 8:25 PM EDT
Civil Twilight 5:43 AM EDT 8:53 PM EDT
Nautical Twilight 5:09 AM EDT 9:28 PM EDT
Astronomical Twilight 4:31 AM EDT 10:05 PM EDT
Moon 12:15 PM EDT (6/4) 12:36 AM EDT (6/4)
Length of Visible Light 15h 09m
Length of Day
14h 13m
Waxing Crescent, 39% of the Moon is Illuminated
Jun 4
Waxing Crescent
Jun 5
First Quarter
Jun 13
Full
Jun 19
Last Quarter
Jun 27
New

Hourly Weather History & Observations

Time (EDT) Temp. Heat Index Dew Point Humidity Pressure Visibility Wind Dir Wind Speed Gust Speed Precip Events Conditions
12:56 AM 73.0 °F - 64.9 °F 76% 29.99 in 10.0 mi WSW 8.1 mph - N/A   Partly Cloudy
1:56 AM 73.0 °F - 64.9 °F 76% 29.98 in 10.0 mi WSW 6.9 mph - N/A   Clear
2:56 AM 72.0 °F - 64.9 °F 78% 29.97 in 10.0 mi WSW 5.8 mph - N/A   Clear
3:56 AM 71.1 °F - 64.9 °F 81% 29.97 in 10.0 mi WSW 6.9 mph - N/A   Clear
4:56 AM 70.0 °F - 64.0 °F 81% 29.97 in 10.0 mi WSW 4.6 mph - N/A   Clear
5:56 AM 69.1 °F - 64.0 °F 84% 29.97 in 10.0 mi WSW 5.8 mph - N/A   Partly Cloudy
6:56 AM 70.0 °F - 63.0 °F 78% 29.99 in 10.0 mi WSW 5.8 mph - N/A   Partly Cloudy
7:56 AM 73.9 °F - 63.0 °F 68% 29.99 in 10.0 mi WSW 10.4 mph - N/A   Partly Cloudy
8:56 AM 77.0 °F - 64.0 °F 64% 30.00 in 10.0 mi West 5.8 mph - N/A   Partly Cloudy
9:56 AM 80.1 °F 82.1 °F 66.0 °F 62% 29.98 in 10.0 mi West 6.9 mph - N/A   Scattered Clouds
10:56 AM 82.9 °F 85.4 °F 66.9 °F 58% 29.96 in 10.0 mi West 4.6 mph - N/A   Mostly Cloudy
11:56 AM 87.1 °F 90.6 °F 68.0 °F 53% 29.96 in 10.0 mi WNW 8.1 mph - N/A   Mostly Cloudy
12:56 PM 88.0 °F 90.7 °F 66.9 °F 49% 29.95 in 10.0 mi Variable 5.8 mph - N/A   Mostly Cloudy
1:56 PM 90.0 °F 92.4 °F 66.0 °F 45% 29.95 in 10.0 mi West 8.1 mph - N/A   Mostly Cloudy
2:56 PM 89.1 °F 91.0 °F 64.9 °F 45% 29.93 in 10.0 mi SW 8.1 mph - N/A   Scattered Clouds
3:56 PM 91.9 °F 94.5 °F 66.0 °F 42% 29.90 in 10.0 mi SW 8.1 mph - N/A   Scattered Clouds
4:56 PM 89.6 °F 93.4 °F 68.0 °F 49% 29.89 in 10.0 mi SSW 15.0 mph - N/A   Mostly Cloudy
5:56 PM 87.1 °F 89.2 °F 66.0 °F 49% 29.88 in 10.0 mi SSW 15.0 mph - N/A   Mostly Cloudy
6:56 PM 84.9 °F 86.6 °F 64.9 °F 51% 29.88 in 10.0 mi SSW 17.3 mph 23.0 mph N/A   Mostly Cloudy
7:56 PM 81.0 °F 83.3 °F 66.9 °F 62% 29.88 in 10.0 mi SSW 10.4 mph - N/A   Mostly Cloudy
8:56 PM 79.0 °F - 66.9 °F 66% 29.88 in 10.0 mi SSW 12.7 mph - N/A   Scattered Clouds
9:56 PM 77.0 °F - 68.0 °F 74% 29.90 in 10.0 mi SSW 11.5 mph - N/A   Partly Cloudy
10:56 PM 75.9 °F - 68.0 °F 76% 29.92 in 10.0 mi SSW 9.2 mph - N/A   Partly Cloudy
11:56 PM 75.9 °F - 68.0 °F 76% 29.91 in 10.0 mi SSW 10.4 mph - N/A   Scattered Clouds